Regional Weather Roundup
Issued by NWS Portland, ME

Current Version | Previous Version | Graphics & Text | Print | Product List | Glossary On
Versions: 1 2 3 4 5 6 7 8 9 10 11 12 13 14 15 16 17 18 19 20 21 22 23 24 25 26 27 28 29 30 31 32 33 34 35 36 37 38 39 40 41 42 43 44 45 46 47 48 49 50
145
ASUS41 KGYX 260010
RWRGYX
WEATHER ROUNDUP FOR MAINE AND NEW HAMPSHIRE
NATIONAL WEATHER SERVICE GRAY ME
800 PM EDT MON JUL 25 2016

MEZ002-005-006-010-012-015-018-020-021-024-026-027-029-260100-
MAINE

CITY           SKY/WX    TMP DP  RH WIND       PRES   REMARKS
PORTLAND       MOCLDY    72  66  81 E6        29.78F
6HR MIN TEMP:  72; 6HR MAX TEMP:  83;

SANFORD        RAIN      73  68  84 SW9G18    29.80R
BAR HARBOR     CLOUDY    71  64  78 SE3       29.83S
WISCASSET      MOCLDY    74  61  63 CALM      29.81F
6HR MIN TEMP:  74; 6HR MAX TEMP:  82;

ROCKLAND       CLOUDY    65  63  93 E3        29.80F
FRYEBURG       NOT AVBL
LEWISTONAUBURN   N/A     73  57  57 SE6       29.78F
AUGUSTA        MOCLDY    76  53  44 SE7       29.80F
6HR MIN TEMP:  76; 6HR MAX TEMP:  86;

WATERVILLE     CLOUDY    74  57  55 CALM      29.77F
BANGOR         CLOUDY    76  62  62 S8        29.81F
6HR MIN TEMP:  76; 6HR MAX TEMP:  89;

GREENVILLE       N/A     69  60  73 CALM      29.80F
6HR MIN TEMP:  69; 6HR MAX TEMP:  80;

MILLINOCKET    CLOUDY    77  60  55 VRB7      29.80S
6HR MIN TEMP:  76; 6HR MAX TEMP:  84;

HOULTON        CLOUDY    70  65  84 CALM      29.77F
6HR MIN TEMP:  70; 6HR MAX TEMP:  82;

PRESQUE ISLE   CLOUDY    72  66  81 CALM      29.79F
6HR MIN TEMP:  72; 6HR MAX TEMP:  81;

FRENCHVILLE    CLOUDY    71  62  73 E6        29.79F
6HR MIN TEMP:  71; 6HR MAX TEMP:  79; 6HR PCP: TRACE;

CARIBOU        CLOUDY    74  63  68 E5        29.77F
6HR MIN TEMP:  74; 6HR MAX TEMP:  82; 6HR PCP: TRACE;

$$

NHZ002-005-008-009-011-012-014-260100-
NEW HAMPSHIRE

CITY           SKY/WX    TMP DP  RH WIND       PRES   REMARKS
PORTSMOUTH     LGT RAIN  73  72  94 NE6       29.77S FOG
ROCHESTER      LGT RAIN  72  70  93 CALM      29.78S FOG
6HR MIN TEMP:  72; 6HR MAX TEMP:  84; 6HR PCP:  0.15;

NASHUA         CLOUDY    81  71  71 CALM      29.76F
MANCHESTER     CLOUDY    76  71  85 N5        29.75F
6HR MIN TEMP:  75; 6HR MAX TEMP:  93; 6HR PCP:  0.03;

CONCORD        CLOUDY    76  68  76 E5        29.76F
6HR MIN TEMP:  76; 6HR MAX TEMP:  92;

LACONIA        CLOUDY    75  73  93 NW5       29.77
PLYMOUTH       CLOUDY    76  71  84 CALM      29.76F
BERLIN         CLOUDY    72  68  87 N5        29.80F
6HR MIN TEMP:  72; 6HR MAX TEMP:  87; 6HR PCP:  0.02;

WHITEFIELD     CLOUDY    73  68  84 CALM      29.79F
6HR MIN TEMP:  72; 6HR MAX TEMP:  86; 6HR PCP:  0.08;

JAFFREY        CLOUDY    83  67  58 SW5       29.79F
6HR MIN TEMP:  82; 6HR MAX TEMP:  89; 6HR PCP: TRACE;

KEENE          LGT RAIN  83  69  62 S3        29.77F
LEBANON        CLOUDY    76  71  85 CALM      29.78R
6HR MIN TEMP:  75; 6HR MAX TEMP:  87; 6HR PCP:  0.01;

MT WASHINGTON  FOG       55  55 100 SW22        N/A  VSB 1/16
6HR MIN TEMP:  56; 6HR MAX TEMP:  64; 6HR PCP:  0.01;

$$

VTZ005-007-008-260100-
VERMONT

CITY           SKY/WX    TMP DP  RH WIND       PRES   REMARKS
ST JOHNSBURY     N/A     76  70  82 MISG      29.77S
MONTPELIER     FAIR      76  67  73 S3        29.84S
BURLINGTON     MOCLDY    79  69  71 S8        29.75F
$$

MAZ007-012-024-CTZ003-RIZ002-NYZ038-NYZ072-260100-
SOUTHERN NEW ENGLAND AND NY

CITY           SKY/WX    TMP DP  RH WIND       PRES   REMARKS
BOSTON         MOCLDY    80  66  62 S14       29.78S
WORCESTER      CLOUDY    80  68  66 S12       29.82F
NANTUCKET      PTCLDY    72  71  97 S12       29.85S
PROVIDENCE     CLOUDY    77  70  79 SW8       29.84R
HARTFORD       LGT RAIN  80  70  71 S12       29.80S
ALBANY         MOCLDY    79  73  82 SW7       29.79R
NEW YORK CITY  CLOUDY    78  71  79 N3        29.87F
$$

ANZ081-ANZ082-ANZ150-NHZ014-MEZ023>029-260100-
COASTAL MARINE OBSERVATIONS

STATION/POSITION TIME  TEMP    WIND        PRES    WAVE
                       AIR SEA DIR/SP/G            HT/PER
                 (UTC) (F)     (DEG/KT/KT) (MB)    (FT/S)
MOUNT DESERT ROC 0000   63     130/ 13/ 13 1010.0F
MATINICUS ROCK   0000   63     120/ 11/ 11 1008.9F
ISLE OF SHOALS   0000   68     330/ 21/ 24 1008.2R
JEFFREYS LEDGE   2308      69                N/A     2/ 3
CASHES LEDGE BUO 2350   71 71  170/ 12/ 14 1008.9F   2/ 8
GEORGES BANK BUO 2350   67 65              1012.6S   3/ 6
$$

.............KEY..............
   WCI - WIND CHILL
   TC  - TEMPERATURE IN CELSIUS
   VSB - VISIBILITY IN MILES
   HX  - HEAT INDEX
   FAIR- INDICATES FEW OR NO CLOUDS BELOW 12,000 FT, WITH NO
         SIGNIFICANT WEATHER AND/OR OBSTRUCTIONS TO VISIBILITY.






USA.gov is the U.S. government's official web portal to all federal, state and local government web resources and services.